Terminal Aerodrome Forecast
Issued by NWS

Home | Current Version | Previous Version | Graphics & Text | Print | Product List | Glossary On
Versions: 1 2 3 4 5 6 7 8 9 10 11 12 13 14 15 16 17 18 19 20 21
000
FTUS43 KBIS 152300
TAFMOT
TAF
KMOT 152338Z 1600/1624 34015KT P6SM OVC020
     FM160400 33008KT P6SM OVC012
     FM161000 32005KT P6SM OVC008
     FM161600 36003KT P6SM BKN012
     FM161900 03003KT P6SM SCT015=

USA.gov is the U.S. government's official web portal to all federal, state and local government web resources and services.